GEFSMA_500_meanwind_006.txt.gz
Wind_Speed
24 24 24 23 22 20 18 18 18 20 22 23 24 25 25 24 21 22 25 25 25 26 29 31 31 30 27 25 24 21 19 18 17 17 17 16 16 16 16 18 19 19 18
24 23 22 21 21 21 20 19 20 21 22 23 24 25 26 25 24 25 25 25 25 25 26 29 31 32 30 27 27 26 25 22 19 19 20 19 19 18 17 17 16 17 17
25 24 23 23 22 21 20 20 20 21 21 22 23 24 24 25 25 24 24 25 25 25 25 26 28 28 29 30 30 30 30 27 23 22 22 22 22 20 18 18 18 18 16
24 23 22 22 22 21 21 21 20 20 20 20 19 19 20 21 23 23 24 25 26 25 25 25 27 28 30 31 32 33 34 32 29 27 26 25 24 23 21 20 20 20 19
19 18 18 19 21 22 22 21 20 19 18 17 16 16 18 20 21 21 21 22 23 24 25 26 27 28 31 33 34 35 36 36 35 34 32 30 29 26 24 24 23 23 23
18 16 15 16 18 19 19 19 18 18 17 16 16 16 17 17 17 18 19 19 19 21 24 26 27 28 30 32 34 35 36 37 37 38 38 36 33 30 27 26 25 26 27
21 18 16 15 16 17 17 17 17 17 17 18 17 16 15 14 13 14 16 18 20 20 23 26 27 28 28 29 30 32 34 35 35 36 38 39 37 34 30 27 26 26 27
22 20 19 18 17 17 17 17 17 18 19 19 18 17 16 15 13 13 14 16 18 21 23 25 27 28 27 28 27 28 30 32 34 35 36 38 39 38 34 30 28 26 25
21 20 19 19 19 19 20 21 20 20 20 20 19 19 18 18 17 15 14 15 15 18 21 24 26 28 28 29 27 26 27 29 32 34 34 35 39 40 37 34 31 28 26
19 20 20 20 20 21 21 22 22 22 22 22 23 22 20 20 20 20 17 15 16 18 19 21 24 27 28 28 28 26 26 27 29 32 33 34 37 40 39 36 32 31 29
20 20 21 22 23 23 23 23 24 24 23 24 25 25 23 21 20 21 21 19 16 18 20 21 23 26 27 27 27 28 26 25 27 30 32 33 37 39 40 38 35 34 30
25 23 22 23 24 26 27 27 27 27 26 25 26 25 24 23 22 21 22 21 19 18 19 22 24 26 26 25 25 26 26 25 25 26 27 29 33 37 40 39 37 34 30
31 30 28 26 26 27 30 30 30 30 30 28 28 27 27 25 24 23 22 21 20 20 19 21 23 26 26 24 24 25 25 24 23 24 24 25 27 30 34 36 35 32 28
39 37 36 33 32 31 32 33 33 34 33 31 30 29 29 28 27 25 23 21 19 20 21 22 22 25 25 23 23 24 22 21 21 22 23 22 22 23 26 29 29 28 28
49 47 45 42 40 38 37 37 36 36 34 33 32 32 31 31 30 29 27 24 21 20 22 23 22 24 25 23 23 24 23 21 19 18 20 20 20 21 22 25 26 28 29
54 54 54 52 49 46 45 44 42 40 38 36 35 34 33 32 33 32 31 29 25 22 23 25 24 24 25 25 25 25 25 25 23 22 21 21 22 23 25 27 28 29 30
57 57 57 56 55 53 53 52 49 47 45 42 40 38 36 35 34 33 32 31 29 25 23 24 24 24 25 26 28 28 27 27 27 27 26 25 25 27 29 30 31 32 31
61 60 61 61 60 58 56 56 55 53 51 49 46 43 41 38 36 34 33 31 30 26 22 23 23 23 24 26 27 29 30 30 30 30 30 29 29 28 29 31 32 32 31
65 66 65 65 64 63 60 59 58 56 55 53 51 48 44 40 37 35 33 31 29 26 23 23 22 21 22 24 25 27 30 30 30 29 29 29 28 28 28 29 30 30 28
58 65 69 70 70 68 65 63 60 57 56 53 51 49 45 41 38 36 33 31 29 27 24 24 22 19 18 21 22 24 26 27 26 25 26 25 25 26 26 27 26 25 23
39 46 54 62 68 71 71 70 66 62 57 54 51 48 46 43 41 39 36 32 29 28 25 24 21 17 15 17 19 20 22 23 23 22 22 22 22 23 23 23 23 23 22
35 36 39 44 51 59 67 72 72 67 62 57 52 49 47 45 44 42 39 35 31 28 25 23 21 17 14 14 17 19 19 20 20 21 23 23 22 22 21 23 25 26 25
36 35 34 35 38 44 53 62 69 71 67 61 55 51 48 46 45 44 42 39 33 28 25 22 20 18 15 12 13 15 17 19 21 23 24 25 24 23 22 23 24 27 26
41 38 36 34 33 35 40 47 57 66 69 66 60 54 49 45 44 44 44 41 34 29 25 22 20 18 15 13 13 14 16 17 18 21 22 24 24 24 22 21 21 24 24
44 42 40 37 34 32 33 36 41 52 60 64 62 56 51 47 44 43 44 43 37 31 25 22 19 18 15 13 14 16 16 16 15 16 17 19 22 24 25 23 22 21 20
44 42 42 40 37 34 31 30 31 38 48 56 59 56 52 49 45 43 43 43 40 32 26 22 19 17 15 14 14 16 15 14 13 13 14 17 20 24 26 25 23 19 17

GEFSMA_500_meanwind_012.txt.gz
Wind_Speed
28 26 26 27 27 26 26 26 26 26 27 27 25 22 22 21 22 21 21 21 20 19 20 21 22 24 25 27 29 28 25 23 21 21 20 19 18 17 16 15 14 13 11
29 27 26 26 25 26 26 26 27 26 26 24 22 21 23 23 24 24 23 23 23 22 23 23 23 24 25 28 30 32 30 27 25 23 23 22 21 20 19 18 16 15 14
28 25 25 25 25 26 27 27 27 27 27 26 25 24 24 24 25 25 24 23 24 24 24 24 24 24 24 26 29 33 34 31 29 27 25 25 24 23 22 20 19 17 16
28 26 25 25 26 27 28 29 29 30 29 29 27 26 25 24 24 23 22 21 21 22 22 22 23 24 24 24 27 30 34 34 33 31 29 27 27 27 26 24 22 20 19
28 25 25 25 26 27 28 28 29 30 31 30 29 27 25 24 22 21 20 19 19 20 20 20 21 23 24 24 25 27 30 32 33 33 31 30 29 29 28 27 25 24 23
27 26 26 26 26 27 27 27 28 30 30 30 29 27 24 22 21 20 19 18 18 18 18 19 19 21 23 24 25 25 27 30 32 33 33 33 32 31 30 29 28 27 26
26 26 27 27 27 27 27 27 27 27 27 27 26 25 23 22 20 20 19 17 16 15 16 17 17 18 20 22 24 25 26 29 31 32 34 34 34 35 33 32 31 29 29
25 25 25 25 26 27 28 28 26 25 25 26 25 24 23 22 21 20 19 17 15 14 14 14 15 17 18 19 21 23 25 27 29 31 33 34 36 37 37 35 34 32 31
26 25 24 24 25 27 28 29 28 26 26 26 26 25 24 23 22 22 21 19 17 16 15 13 14 15 17 18 19 21 24 26 28 29 30 32 34 36 37 37 37 36 35
29 28 27 26 26 27 29 30 30 29 28 28 28 27 26 25 24 24 23 21 20 19 17 15 15 15 16 18 19 20 22 25 27 28 29 30 32 33 35 36 37 38 37
34 33 31 30 30 30 31 32 33 33 32 31 31 30 29 27 26 26 24 22 21 21 20 18 16 16 16 17 18 19 21 24 26 27 28 29 30 32 34 35 36 36 37
41 40 39 37 36 35 35 35 36 36 35 35 34 33 32 29 27 27 26 24 22 21 21 19 18 17 17 18 18 18 20 23 25 27 29 30 30 31 32 34 35 36 37
47 47 46 44 42 41 40 40 39 39 39 38 38 37 36 33 30 28 27 26 24 23 21 20 19 18 18 18 18 18 19 21 24 26 28 29 29 30 31 33 33 35 36
53 53 52 51 49 47 47 45 44 43 43 43 42 41 39 37 34 32 30 28 27 26 24 22 20 20 20 19 19 19 19 20 22 24 26 27 29 29 29 31 32 34 35
58 59 59 58 56 54 52 51 49 48 47 46 46 45 44 42 38 36 33 31 30 29 28 25 23 22 22 21 20 20 19 20 21 23 24 26 27 28 29 31 32 33 35
63 64 64 63 63 61 59 56 55 54 52 50 49 49 48 47 43 40 37 35 32 30 30 28 26 25 24 24 23 21 20 19 21 22 23 24 25 27 28 29 30 32 33
59 66 68 68 68 67 66 64 61 58 55 53 53 52 51 50 48 44 41 38 35 32 30 30 28 27 27 25 24 23 21 19 21 23 24 24 25 24 24 24 23 24 25
50 56 63 69 72 72 71 70 68 65 62 59 57 56 54 53 51 48 45 41 38 34 31 30 29 28 28 26 25 25 23 20 22 24 26 26 26 24 23 21 19 19 21
50 51 53 59 68 74 76 75 73 72 69 66 62 60 58 57 55 52 49 45 41 37 33 30 29 27 27 27 26 25 23 21 21 24 27 28 28 27 25 23 22 21 21
50 50 51 52 56 64 73 78 77 76 74 72 70 66 61 59 56 54 52 48 45 40 36 32 30 28 28 27 26 24 22 21 21 24 27 29 30 29 29 27 26 25 25
49 49 48 49 50 51 57 67 75 77 76 75 73 71 66 61 57 55 54 51 47 43 38 34 31 29 28 27 26 24 22 20 21 24 27 30 31 31 30 28 27 26 25
48 47 47 46 45 44 44 49 57 67 74 76 75 73 71 67 61 56 54 52 50 45 41 36 33 30 29 28 26 24 22 20 21 23 26 29 30 30 29 28 26 25 24
46 47 47 46 44 42 40 38 39 46 56 66 73 74 72 69 65 60 56 53 51 47 43 39 34 32 30 28 26 24 22 21 21 22 25 26 27 27 26 25 25 23 22
45 47 49 47 45 43 40 38 36 36 39 47 58 67 72 71 66 62 58 54 51 48 44 41 37 34 31 29 26 23 21 20 20 21 22 24 25 26 25 24 24 23 22
42 46 49 50 48 45 43 40 39 37 35 36 41 51 61 67 68 65 60 54 51 48 46 43 39 35 32 30 27 23 21 19 19 20 21 23 24 26 26 25 25 25 24
37 43 48 49 50 48 45 42 40 37 35 34 34 38 46 55 63 65 61 56 51 49 47 44 40 37 34 31 27 23 21 20 21 22 22 23 24 26 27 27 27 26 25

GEFSMA_500_meanwind_018.txt.gz
Wind_Speed
40 41 39 37 35 33 33 33 33 32 32 31 29 28 27 24 23 23 22 20 18 18 18 19 20 21 23 25 25 25 28 29 27 25 24 24 23 22 21 20 18 17 15
39 40 41 40 38 37 35 34 33 32 31 30 29 28 26 24 23 22 22 21 20 20 20 20 19 20 21 22 23 24 26 30 31 30 28 26 26 25 24 22 21 19 18
37 38 40 40 39 37 34 32 32 31 30 29 29 28 26 24 22 21 22 22 22 22 22 22 22 22 22 22 23 24 25 27 31 33 32 30 28 27 27 25 24 22 20
34 35 36 38 38 37 35 33 32 32 31 30 29 29 28 25 24 24 23 23 24 23 22 22 23 24 24 24 24 24 25 26 29 33 35 34 32 30 29 28 26 25 23
31 32 33 35 36 36 35 34 33 33 32 31 30 30 30 28 27 26 25 25 24 23 22 21 22 23 24 25 25 25 26 26 27 31 36 37 36 34 32 30 29 27 25
28 29 31 33 33 34 34 34 34 33 33 32 31 31 32 32 30 28 26 25 24 23 21 20 21 22 23 24 25 26 26 26 26 27 32 37 39 38 35 34 32 30 29
28 28 29 30 31 33 33 33 33 34 34 33 32 32 32 32 32 30 28 26 24 23 21 20 19 19 20 22 22 23 25 26 26 27 28 33 39 41 39 37 35 33 32
32 30 29 29 29 31 32 32 32 33 33 33 32 31 31 31 31 30 29 26 25 22 20 18 17 17 17 18 19 21 23 24 25 27 28 29 33 39 41 39 38 36 34
36 35 33 32 31 30 30 31 31 31 31 32 32 30 29 30 30 29 28 26 25 23 20 18 17 16 16 16 16 18 20 22 23 25 27 28 29 32 36 38 38 38 37
41 41 39 38 36 34 33 32 32 31 31 31 32 31 30 29 29 29 29 27 26 24 22 20 18 17 15 15 16 16 17 19 20 22 25 27 28 29 31 34 37 38 38
46 46 46 44 42 40 38 36 34 33 32 31 32 32 31 31 31 31 30 29 28 26 24 23 20 18 17 16 15 14 15 16 18 20 22 25 27 29 30 31 34 35 36
49 50 50 50 49 47 44 42 40 38 36 34 33 33 34 34 34 34 33 32 30 28 27 25 22 20 19 18 16 15 14 15 16 18 20 23 26 28 29 30 32 33 35
52 53 53 54 54 53 51 49 47 45 42 39 37 36 36 37 37 37 36 35 33 31 29 27 24 22 21 20 19 17 15 14 15 17 19 21 24 27 29 30 31 32 33
48 51 53 56 57 58 57 56 54 52 49 46 43 41 39 39 40 40 39 38 36 33 31 29 27 24 22 21 20 18 17 15 15 16 18 21 23 26 28 29 30 31 32
46 48 50 53 56 59 61 61 60 58 56 53 50 47 44 43 42 42 42 41 39 37 34 32 29 27 24 23 22 20 19 18 17 17 19 20 22 25 27 29 30 30 31
49 51 52 53 55 57 60 63 64 64 62 60 57 53 50 48 46 45 45 44 43 41 38 36 33 30 27 26 24 22 22 21 21 20 21 21 22 24 26 28 29 30 30
54 56 57 58 58 59 60 62 64 66 67 65 64 62 56 52 50 49 48 47 46 44 42 39 36 33 31 28 26 25 24 23 23 22 23 23 23 23 25 26 27 28 28
59 60 61 62 62 62 62 63 64 66 68 69 69 68 64 59 56 53 52 51 49 47 45 42 39 36 33 30 28 26 25 24 24 24 25 25 24 24 24 25 26 26 26
61 61 61 63 64 65 66 65 65 65 67 69 71 71 71 67 61 57 55 54 52 50 48 45 42 39 36 32 30 27 26 25 25 25 25 25 24 24 25 26 26 25 24
63 62 62 62 63 64 66 66 66 66 66 68 71 73 74 73 68 63 58 56 55 53 51 49 46 42 38 35 32 29 26 25 25 25 25 24 24 24 25 27 27 26 25
60 59 58 59 61 62 64 65 65 66 66 67 68 71 74 76 73 69 63 57 56 55 53 51 49 45 41 38 34 31 28 26 25 25 24 24 24 24 26 27 27 26 25
52 51 51 53 54 57 59 61 63 63 63 63 65 67 70 74 76 73 68 63 58 57 56 53 50 47 44 40 37 33 30 27 25 25 24 24 24 24 25 27 27 26 26
45 44 44 46 49 51 53 56 59 59 59 57 59 61 64 69 72 75 73 69 63 58 59 57 53 49 46 43 39 35 32 29 27 25 24 24 23 24 25 27 27 27 26
38 36 36 37 42 46 48 51 54 54 53 51 50 52 56 59 66 71 74 72 68 62 56 56 54 52 49 46 42 38 34 31 28 25 24 24 23 23 23 25 26 26 25
33 30 29 30 33 39 43 46 47 47 47 45 43 44 47 50 56 64 69 71 68 65 61 54 51 52 51 48 43 39 35 32 28 26 24 24 23 22 22 23 23 23 23
28 25 22 23 27 32 37 40 42 42 42 41 40 39 40 43 47 53 59 65 68 68 64 58 52 49 49 47 44 40 37 33 29 26 24 23 22 21 20 20 21 21 21

GEFSMA_500_meanwind_024.txt.gz
Wind_Speed
31 31 32 32 32 32 33 34 33 32 31 30 30 30 31 31 32 30 28 27 26 26 26 25 23 22 22 22 22 23 25 25 26 26 24 23 22 21 20 19 17 15 13
31 32 31 31 31 32 32 33 33 32 31 31 30 30 30 30 31 32 29 26 25 25 25 23 23 22 20 20 20 20 21 23 25 28 27 26 25 24 22 21 19 17 15
32 32 31 31 31 31 30 31 32 31 31 31 29 28 29 29 30 30 30 28 25 25 24 23 23 22 20 19 19 19 19 20 22 24 28 29 29 27 25 24 22 20 18
33 33 32 32 32 31 29 29 29 29 30 31 30 28 27 28 28 28 29 28 26 26 25 25 24 22 21 20 19 19 18 18 20 21 23 27 31 31 29 27 25 24 22
35 34 34 33 33 31 30 29 29 29 29 30 30 30 29 28 28 29 29 29 27 26 25 24 24 23 21 20 20 20 20 20 20 21 22 24 28 31 32 31 29 27 26
37 37 36 35 34 32 31 30 28 27 27 28 29 29 30 30 29 29 29 27 26 25 24 23 23 22 21 20 20 20 20 20 21 21 22 23 25 29 33 34 32 31 29
39 39 38 37 36 35 33 32 29 28 28 28 29 30 30 30 29 29 29 28 26 25 25 22 21 20 20 19 18 19 19 19 20 21 22 24 24 26 31 34 35 34 32
40 41 40 39 38 37 35 34 32 31 30 29 30 29 30 30 30 29 29 29 28 27 26 23 21 21 20 19 18 18 17 17 18 19 21 22 24 24 26 31 34 36 36
42 43 43 42 41 40 38 37 36 34 32 31 29 29 30 30 29 29 29 29 29 29 28 25 23 22 21 19 18 17 17 16 16 17 18 19 21 23 24 25 29 33 36
44 45 45 45 44 43 42 40 39 38 36 34 31 30 30 30 29 28 29 29 29 29 28 26 24 23 22 20 19 18 16 15 15 15 15 16 17 19 21 23 25 27 31
47 46 46 46 45 45 44 43 42 40 39 37 35 32 31 31 31 30 29 28 29 30 29 27 26 25 24 22 20 18 16 14 14 13 13 14 14 15 17 19 21 23 25
46 44 43 41 40 42 42 43 43 43 42 40 39 37 34 33 32 32 30 30 29 30 30 30 28 27 26 24 21 19 17 14 13 12 12 11 12 12 13 15 17 19 21
42 41 40 39 37 37 39 40 40 42 43 43 42 41 39 37 35 33 32 31 31 31 30 31 30 29 28 26 24 21 18 16 14 12 11 10 10 10 11 12 14 16 19
41 41 42 42 41 39 39 40 41 41 42 44 44 44 43 42 39 36 35 33 33 32 32 32 32 31 30 28 26 23 20 18 16 14 12 10 9 9 9 10 12 14 16
42 43 45 46 46 46 45 45 45 45 44 44 45 46 46 45 43 41 39 37 35 34 34 34 34 34 32 30 28 25 23 21 18 16 14 11 10 9 8 9 10 12 14
44 46 48 50 51 52 52 52 51 50 49 48 47 48 48 48 47 45 42 40 38 38 37 37 36 35 34 32 30 28 26 23 21 19 16 14 12 11 10 9 9 11 13
45 47 50 52 54 56 58 58 58 57 55 53 52 51 51 51 51 49 47 44 42 41 41 39 38 37 36 35 33 31 29 26 24 21 19 16 14 13 12 11 10 11 12
47 48 50 52 54 57 59 61 63 62 61 59 57 56 55 54 54 52 51 49 46 44 43 43 41 39 39 38 37 34 31 29 27 24 21 18 16 15 14 13 12 12 12
48 49 51 53 55 57 60 62 65 66 65 64 62 60 59 58 56 56 54 53 51 49 46 45 44 42 41 40 39 36 34 32 29 26 23 20 18 17 16 14 13 13 13
49 50 51 53 55 57 58 60 63 65 66 65 64 63 62 61 59 58 58 57 54 53 51 48 47 46 43 42 41 39 37 34 31 28 26 23 20 18 17 16 14 14 14
49 51 51 52 53 54 54 55 57 59 61 62 62 61 61 62 61 60 60 60 58 55 54 51 49 49 47 44 42 41 39 37 34 31 28 25 21 18 17 16 15 15 15
50 51 50 50 49 48 48 48 49 52 54 55 55 55 57 59 61 61 61 60 60 58 57 54 50 49 48 46 44 43 42 41 37 34 31 26 22 19 18 17 15 15 15
49 49 48 47 45 44 44 43 43 44 46 48 49 50 52 55 57 59 61 61 61 60 58 55 53 49 48 47 47 45 45 43 40 36 33 28 24 21 19 17 16 15 15
47 47 45 43 41 40 39 38 37 37 38 41 44 44 47 49 52 53 56 59 60 59 59 56 53 50 48 46 45 46 46 45 42 38 34 30 26 23 20 18 17 16 16
45 44 42 40 39 37 36 34 31 30 32 36 39 40 42 44 45 47 49 53 56 58 58 58 54 53 49 46 45 45 45 44 43 40 36 32 28 25 22 19 18 16 16
43 42 40 39 36 34 30 26 23 22 26 31 35 37 38 39 42 44 45 46 49 52 55 56 55 53 52 49 45 44 44 44 44 41 38 34 30 27 23 21 18 17 17

GEFSMA_500_meanwind_030.txt.gz
Wind_Speed
30 28 28 28 28 27 26 26 26 26 25 25 26 27 29 29 29 30 30 30 29 30 29 27 25 25 24 24 24 23 22 23 23 22 21 20 19 17 17 17 16 14 12
29 29 29 29 29 28 27 27 26 25 25 25 25 25 28 29 29 30 31 30 30 30 29 27 25 25 25 25 24 24 23 23 24 25 24 23 22 20 19 18 17 16 14
30 30 30 30 30 30 29 27 27 25 25 24 23 23 24 27 28 30 30 31 31 30 29 27 26 25 25 25 25 25 24 24 24 25 25 25 25 24 22 20 19 17 16
33 32 31 31 31 31 30 29 27 26 25 24 23 24 24 26 27 28 29 30 31 30 29 29 28 26 26 27 26 25 25 24 24 25 25 25 26 26 25 24 22 20 18
34 33 32 32 32 32 31 30 28 26 25 25 23 22 23 24 26 28 29 29 30 30 31 30 29 29 28 28 27 26 26 25 25 25 25 26 26 27 28 27 25 24 22
34 34 34 34 33 33 33 31 29 27 26 25 23 22 22 22 24 26 27 28 28 30 31 31 31 30 30 30 29 28 28 26 26 26 25 25 26 26 27 28 28 26 25
35 35 35 35 35 34 34 33 32 29 28 26 24 23 23 22 22 25 26 27 28 30 30 29 31 31 32 32 31 30 29 29 27 26 26 26 26 26 27 27 28 29 29
35 35 35 36 36 35 35 35 34 32 31 29 27 25 24 23 23 24 26 27 29 30 30 30 31 31 32 33 33 32 31 30 29 28 28 28 28 28 28 28 28 29 30
33 33 33 34 35 35 35 35 35 34 33 32 29 28 26 25 24 24 25 26 27 29 30 30 32 31 32 34 34 34 33 32 31 30 30 30 30 30 29 30 29 29 29
34 34 33 32 32 33 33 34 34 34 34 34 32 31 30 28 27 26 25 25 27 28 30 32 33 32 32 33 33 34 34 33 32 31 31 30 30 31 30 30 30 29 28
36 35 34 32 31 31 31 31 32 33 34 35 35 34 32 31 30 29 27 26 27 28 30 33 34 34 33 33 33 33 34 34 33 32 31 31 30 30 30 30 30 29 28
37 37 35 33 32 31 30 30 30 30 31 33 35 36 36 34 33 32 30 29 28 29 30 32 34 35 35 35 35 36 36 35 34 33 32 31 30 29 29 29 29 29 28
38 38 38 36 34 32 30 30 31 31 31 31 33 35 37 37 37 35 33 32 31 30 30 32 34 36 36 36 37 38 37 36 35 33 32 31 30 29 28 28 28 27 27
39 40 40 39 37 35 33 32 32 33 34 33 34 35 36 37 39 39 37 35 33 32 31 32 33 35 37 38 39 39 39 37 36 34 32 31 30 29 28 28 27 26 26
41 40 41 41 41 39 37 36 34 35 36 36 36 37 37 38 39 41 41 39 36 34 33 33 34 36 38 39 40 40 40 39 37 35 33 31 30 29 28 27 26 25 25
42 42 42 42 42 41 41 40 39 38 38 39 39 39 40 41 41 41 43 43 41 38 35 35 35 37 39 41 42 43 42 40 38 36 34 32 30 29 27 26 25 24 23
42 42 42 41 41 42 42 42 42 42 41 41 42 43 43 45 45 44 44 45 44 43 40 38 38 38 41 43 44 45 43 42 40 38 36 33 31 30 28 25 24 22 21
42 41 41 41 41 41 42 43 44 44 44 44 44 45 46 48 49 49 48 47 47 47 44 42 42 41 41 44 45 46 45 44 42 41 38 35 33 31 28 26 23 21 20
41 40 39 40 41 42 42 44 45 46 47 48 48 48 49 50 52 53 53 52 50 49 49 47 45 44 44 45 47 47 46 45 44 42 40 38 35 32 29 27 24 22 20
39 39 39 40 41 42 43 45 46 47 49 50 51 51 52 53 54 56 57 57 55 53 52 51 48 46 47 47 48 48 47 47 45 44 42 40 37 34 31 28 26 23 20
39 39 39 40 42 43 44 45 46 47 49 50 52 53 53 54 55 58 60 61 60 58 56 55 53 50 49 49 48 48 48 48 47 45 43 42 40 37 33 30 26 24 22
39 39 40 41 42 43 44 45 45 46 47 48 50 52 54 54 55 57 60 63 64 63 60 59 56 54 51 49 49 48 49 49 48 47 45 43 42 38 35 31 27 24 22
39 40 41 42 41 42 43 43 44 45 46 46 47 49 51 52 54 56 59 63 66 67 65 63 60 57 54 51 50 49 49 50 49 48 47 44 43 40 37 32 28 25 23
40 41 41 41 41 41 41 42 43 44 43 44 45 47 48 50 52 54 57 62 66 68 68 65 62 59 58 54 51 49 50 51 50 49 48 45 44 41 38 34 30 26 24
40 40 40 40 40 40 41 41 41 42 41 42 43 43 44 47 50 52 55 60 65 68 70 69 67 63 61 58 54 52 51 51 50 49 48 46 45 43 40 36 32 28 25
40 39 38 38 39 39 39 39 39 38 37 36 36 38 40 43 46 49 52 57 63 67 70 71 68 65 62 60 56 53 51 49 49 48 48 48 46 44 41 38 34 30 27